Location: Gwatt
(46.7204°N, 7.6223°E)
Time: 17:42:49
(UTC+00:00)

deb Explorer IX - Pass Details

Date: 22 January 2021
Orbit: 537 x 1102 km, 38.8° (Epoch: 04 March)

Event Time Altitude Azimuth Distance (km) Brightness Sun altitude
Rises 17:07:50 0° 215° (SW) 3,672 ? -8.6°
Reaches altitude 10° 17:11:22 10° 199° (SSW) 2,624 ? -9.2°
Maximum altitude 17:15:36 19° 156° (SSE) 1,922 ? -9.8°
Drops below altitude 10° 17:19:27 10° 112° (ESE) 2,353 ? -10.5°
Enters shadow 17:20:07 - 107° (ESE) 2,514 ? -10.6°
Sets 17:22:24 0° 95° (E) 3,172 - -11.0°
